Date,TemperatureHighF,TemperatureAvgF,TemperatureLowF,DewpointHighF,DewpointAvgF,DewpointLowF,HumidityHigh,HumidityAvg,HumidityLow,PressureMaxIn,PressureMinIn,WindSpeedMaxMPH,WindSpeedAvgMPH,GustSpeedMaxMPH,PrecipitationSumIn
2013-4-1,72,54,39,53,40,17,90,63,41,29.91,29.62,22,2,22,0.00
2013-4-2,56,42,12,31,19,-4,69,41,29,30.10,29.91,22,2,22,0.00
2013-4-3,55,42,30,27,17,12,53,37,29,30.30,30.09,20,2,20,0.00
2013-4-4,58,42,29,30,23,12,63,48,30,30.40,30.11,17,1,17,0.00
2013-4-5,63,49,40,43,32,24,82,54,27,30.11,29.71,21,2,21,10.05
2013-4-6,57,43,34,27,23,17,73,46,29,30.33,29.99,18,2,18,0.14
2013-4-7,59,48,16,44,37,6,78,66,47,30.32,30.02,20,3,20,0.14
2013-4-8,72,58,49,51,45,7,80,63,43,30.09,29.98,13,2,13,0.14
2013-4-9,86,70,51,59,50,45,83,53,29,30.00,29.91,16,2,16,0.14
2013-4-10,70,60,52,55,49,40,89,68,46,29.95,29.77,20,2,20,0.33
2013-4-11,59,55,46,56,50,42,91,85,71,30.01,29.76,17,2,17,0.04
2013-4-12,46,44,43,43,41,40,93,91,84,30.00,29.68,23,4,23,1.08
2013-4-13,70,51,41,55,42,38,92,74,44,29.99,29.72,10,1,10,0.14
2013-4-14,72,53,42,53,39,32,91,63,34,30.21,29.98,17,1,17,0.00
2013-4-15,59,49,44,52,38,33,84,65,48,30.38,30.21,14,1,14,0.00
2013-4-16,70,58,46,54,49,10,86,74,52,30.37,30.14,23,3,23,0.00
2013-4-17,70,59,47,54,48,39,86,68,49,30.29,30.11,14,2,14,11.64
2013-4-18,61,54,45,53,46,39,90,76,58,30.35,30.10,12,2,12,0.00
2013-4-19,79,66,54,69,59,51,93,80,58,30.10,29.68,22,4,22,0.00
2013-4-20,65,56,47,61,40,27,87,58,37,30.29,29.68,15,3,15,0.00
2013-4-21,60,46,36,32,28,21,76,49,32,30.62,30.29,15,2,15,0.00
2013-4-22,57,46,38,39,36,31,79,67,48,30.64,30.47,22,4,22,0.00
2013-4-23,51,46,43,42,39,36,85,77,71,30.47,30.10,19,3,19,0.00
2013-4-24,77,56,40,53,46,36,87,71,42,30.11,29.85,18,2,18,0.00
2013-4-25,69,56,45,51,39,33,85,54,31,30.28,29.89,19,3,19,0.00
2013-4-26,75,56,40,44,38,33,83,54,30,30.39,30.27,10,1,10,0.00
2013-4-27,76,56,42,44,36,32,74,48,28,30.43,30.30,12,1,12,0.00
2013-4-28,78,57,42,52,39,8,81,53,32,30.33,30.22,16,2,16,0.00
2013-4-29,56,53,16,50,47,9,87,80,70,30.24,30.17,10,1,10,0.00
2013-4-30,69,55,46,54,46,40,87,71,57,30.34,30.18,14,1,14,0.00